DW2613 Toddville MD US current weather conditions

sailwx.info

Wind from 329 at 0 knots gusting 3

Air temperature 15.6° C
Dewpoint 14.8° C

Last reported at 2020-Sep-30 06:02 UTC.
Time now 2020-Sep-30 06:41 UTC

Location: N 38°18' W 076°05'.
View on Google Maps.

See reports from other nearby stations

  
Tides and Currents Weather Stations Pressure Air Temp Water Temp Dewpoint Dewpoint Depression Visibility Wind Speed Wind Dir Waves Ship Positions
date/time (UTC)wind fromknots sea level pressurealtimeterstation pressurevisibilityair tempwater tempwave heightnotes
2020-Sep-30 06:02 329 0 gusting 3 15.6
2020-Sep-30 05:51 339 1 gusting 9 15.0
2020-Sep-30 05:41 292 0 gusting 6 15.0
2020-Sep-30 05:31 291 1 gusting 7 15.0
2020-Sep-30 05:21 312 1 gusting 8 15.0
2020-Sep-30 05:10 253 2 gusting 10 15.0
2020-Sep-30 05:00 309 4 gusting 13 15.0
2020-Sep-30 04:50 251 4 gusting 13 15.0
2020-Sep-30 04:41 288 3 gusting 12 15.6
2020-Sep-30 04:31 247 3 gusting 12 15.6
2020-Sep-30 04:21 292 3 gusting 11 15.6
2020-Sep-30 04:11 286 4 gusting 16 16.1
2020-Sep-30 04:01 269 5 gusting 16 16.1
2020-Sep-30 03:52 317 6 gusting 16 16.7
2020-Sep-30 03:41 314 4 gusting 16 17.2
2020-Sep-30 03:32 238 1 gusting 19 17.8
2020-Sep-30 03:21 231 3 gusting 19 18.9
2020-Sep-30 03:11 182 0 gusting 6 22.2
2020-Sep-30 03:01 194 0 gusting 6 22.8
2020-Sep-30 02:51 229 0 gusting 7 22.8
2020-Sep-30 02:41 213 1 gusting 9 22.2
2020-Sep-30 02:31 244 1 gusting 9 22.8
2020-Sep-30 02:21 185 0 gusting 6 22.8
2020-Sep-30 02:12 152 22.8
2020-Sep-30 02:02 090 22.8
2020-Sep-30 01:52 193 22.8
2020-Sep-30 01:41 084 22.8
2020-Sep-30 01:31 093 22.8
2020-Sep-30 01:22 109 22.8
2020-Sep-30 01:11 126 22.2
2020-Sep-30 01:01 084 0 gusting 6 22.2
2020-Sep-30 00:51 090 22.2
2020-Sep-30 00:41 131 22.2
2020-Sep-30 00:32 152 0 gusting 8 22.2
2020-Sep-30 00:21 103 0 gusting 6 22.2
2020-Sep-30 00:11 095 22.8
2020-Sep-30 00:01 117 0 gusting 4 22.8
2020-Sep-29 23:51 109 22.8
2020-Sep-29 23:41 114 22.8
2020-Sep-29 23:31 107 22.8
2020-Sep-29 23:21 069 22.8
2020-Sep-29 23:10 132 22.8
2020-Sep-29 23:00 083 22.8
2020-Sep-29 22:50 090 22.8
2020-Sep-29 22:40 134 22.8
2020-Sep-29 22:30 094 23.3
2020-Sep-29 22:20 069 23.3
2020-Sep-29 22:10 102 23.3
2020-Sep-29 21:59 105 23.3
2020-Sep-29 21:49 110 23.3
2020-Sep-29 21:39 150 23.3
2020-Sep-29 21:29 217 23.3
2020-Sep-29 21:19 172 23.3
2020-Sep-29 21:09 121 23.3
2020-Sep-29 21:00 157 23.3
2020-Sep-29 20:50 158 23.3
2020-Sep-29 20:40 190 23.3
2020-Sep-29 20:30 114 23.3
2020-Sep-29 20:20 186 23.3
2020-Sep-29 20:10 126 23.3
2020-Sep-29 20:00 232 23.3
2020-Sep-29 19:50 237 23.3
2020-Sep-29 19:39 109 23.3
2020-Sep-29 19:29 146 23.9
2020-Sep-29 19:20 059 23.3
2020-Sep-29 19:10 185 23.3
2020-Sep-29 19:00 183 23.3
2020-Sep-29 18:50 131 22.8
2020-Sep-29 18:40 206 22.8
2020-Sep-29 18:30 178 22.8
2020-Sep-29 18:20 254 22.8
2020-Sep-29 17:52 182 23.3
2020-Sep-29 17:42 182 23.3
2020-Sep-29 17:32 164 23.3
2020-Sep-29 17:23 181 23.3
2020-Sep-29 17:12 180 23.3
2020-Sep-29 17:02 215 23.9
2020-Sep-29 16:52 178 23.9
2020-Sep-29 16:42 178 23.3
2020-Sep-29 16:32 113 23.3
2020-Sep-29 16:22 142 23.9
2020-Sep-29 16:12 143 23.9
2020-Sep-29 16:02 128 23.9
2020-Sep-29 15:53 121 23.9
2020-Sep-29 15:42 169 23.9
2020-Sep-29 15:32 171 23.9
2020-Sep-29 15:23 117 23.9
2020-Sep-29 15:13 095 23.3
2020-Sep-29 15:02 110 23.3
2020-Sep-29 14:53 090 23.3
2020-Sep-29 14:42 202 23.9
2020-Sep-29 14:28 161 23.3
2020-Sep-29 14:18 105 23.3
2020-Sep-29 14:08 192 23.3
2020-Sep-29 13:57 109 23.3
2020-Sep-29 13:47 177 23.3
2020-Sep-29 13:37 190 23.3
2020-Sep-29 13:27 192 23.3
2020-Sep-29 13:17 128 22.8
2020-Sep-29 13:07 167 22.8
2020-Sep-29 12:58 190 22.8
2020-Sep-29 12:48 195 22.2
2020-Sep-29 12:38 169 22.2
2020-Sep-29 12:28 181 22.2
2020-Sep-29 12:18 164 22.8
2020-Sep-29 12:08 191 22.2
2020-Sep-29 11:58 150 22.2
2020-Sep-29 11:48 186 22.2
2020-Sep-29 11:37 127 22.2
2020-Sep-29 11:27 144 22.2
2020-Sep-29 11:17 203 22.2
2020-Sep-29 11:06 094 22.2
2020-Sep-29 10:56 197 22.2
2020-Sep-29 10:46 114 22.2
2020-Sep-29 10:36 131 22.2
2020-Sep-29 10:26 110 22.2
2020-Sep-29 10:16 204 22.2
2020-Sep-29 10:06 119 22.2
2020-Sep-29 09:55 087 22.2
2020-Sep-29 09:45 122 22.2
2020-Sep-29 09:35 138 22.2
2020-Sep-29 09:25 171 22.2
2020-Sep-29 09:14 187 22.2
2020-Sep-29 09:04 188 22.2
2020-Sep-29 08:54 175 22.2
2020-Sep-29 08:44 190 22.2
2020-Sep-29 08:35 182 22.2
2020-Sep-29 08:24 186 22.2
2020-Sep-29 08:14 191 22.2
2020-Sep-29 08:04 177 22.2
2020-Sep-29 07:53 181 22.2
2020-Sep-29 07:42 127 22.2
2020-Sep-29 07:32 070 22.2
2020-Sep-29 07:21 134 22.2
2020-Sep-29 07:11 184 22.2
2020-Sep-29 07:01 150 22.2
2020-Sep-29 06:51 215 22.2
2020-Sep-29 06:41 133 22.2
2020-Sep-29 06:32 155 22.2
2020-Sep-29 06:22 173 22.2
2020-Sep-29 06:12 134 22.2
2020-Sep-29 06:01 020 22.2
2020-Sep-29 05:27 188 22.2
2020-Sep-29 05:17 214 22.2
2020-Sep-29 05:07 191 22.2
2020-Sep-29 04:57 083 22.2
2020-Sep-29 04:47 161 22.2
2020-Sep-29 04:37 203 22.2
2020-Sep-29 04:27 165 22.2
2020-Sep-29 04:17 074 22.2
2020-Sep-29 04:07 107 22.2
2020-Sep-29 03:57 129 22.2
2020-Sep-29 03:47 186 22.2
2020-Sep-29 03:37 159 22.2
2020-Sep-29 03:27 202 22.2
2020-Sep-29 03:17 113 22.2
2020-Sep-29 03:07 105 22.2
2020-Sep-29 02:57 136 21.7
2020-Sep-29 02:47 116 21.7
2020-Sep-29 02:37 098 21.7
2020-Sep-29 02:23 142 21.7
2020-Sep-29 02:13 190 21.7
2020-Sep-29 01:41 139 21.7
2020-Sep-29 01:25 116 22.2
2020-Sep-29 01:15 088 22.2
2020-Sep-29 01:05 052 22.2
2020-Sep-29 00:54 084 22.2
2020-Sep-29 00:05 143 22.2
2020-Sep-28 23:34 134 22.8
2020-Sep-28 23:06 186 22.8
2020-Sep-28 22:56 274 23.3
2020-Sep-28 22:47 107 23.3
2020-Sep-28 22:36 131 23.9
2020-Sep-28 22:26 164 23.9
2020-Sep-28 22:16 119 24.4
2020-Sep-28 22:05 104 25.0
2020-Sep-28 21:55 104 25.6
2020-Sep-28 21:45 224 25.6
2020-Sep-28 21:36 165 25.6
2020-Sep-28 21:26 062 25.6
2020-Sep-28 21:15 190 0 gusting 6 25.6
2020-Sep-28 21:05 248 0 gusting 6 25.6
2020-Sep-28 20:55 216 26.1
2020-Sep-28 20:45 090 0 gusting 7 26.1
2020-Sep-28 20:34 117 0 gusting 7 26.7
2020-Sep-28 20:24 105 0 gusting 4 26.7
2020-Sep-28 20:14 096 26.7
2020-Sep-28 20:03 164 0 gusting 6 26.1
2020-Sep-28 19:54 063 0 gusting 7 26.1
2020-Sep-28 19:44 092 1 gusting 10 26.1
2020-Sep-28 19:34 087 1 gusting 10 26.1
2020-Sep-28 19:24 093 2 gusting 8 26.1
2020-Sep-28 19:14 103 0 gusting 8 26.1
2020-Sep-28 19:03 082 1 gusting 6 26.7
2020-Sep-28 18:53 215 0 gusting 6 26.7
2020-Sep-28 18:43 078 0 gusting 6 26.7
2020-Sep-28 18:32 196 0 gusting 6 26.7
2020-Sep-28 18:22 041 0 gusting 6 26.1
2020-Sep-28 18:12 146 26.1
2020-Sep-28 18:02 162 25.6
2020-Sep-28 17:51 127 0 gusting 8 25.6
2020-Sep-28 17:41 232 0 gusting 8 25.6
2020-Sep-28 17:31 150 0 gusting 7 25.6
2020-Sep-28 17:21 189 25.6
2020-Sep-28 17:11 184 25.6
2020-Sep-28 17:01 140 0 gusting 5 25.6
2020-Sep-28 16:50 086 0 gusting 3 25.6
2020-Sep-28 16:41 221 0 gusting 6 25.6
2020-Sep-28 16:30 121 0 gusting 6 25.6
2020-Sep-28 16:20 107 25.0
2020-Sep-28 16:09 185 24.4
2020-Sep-28 16:00 194 0 gusting 5 24.4
2020-Sep-28 15:50 347 24.4
2020-Sep-28 15:39 119 24.4
2020-Sep-28 15:29 137 23.9
2020-Sep-28 15:19 168 23.9
2020-Sep-28 15:09 200 23.9
2020-Sep-28 14:58 178 0 gusting 6 23.3
2020-Sep-28 14:49 222 23.3
2020-Sep-28 14:39 158 0 gusting 6 23.3
2020-Sep-28 14:29 217 23.3
2020-Sep-28 14:19 182 22.8
2020-Sep-28 14:08 203 1 gusting 6 22.8
2020-Sep-28 13:58 190 0 gusting 6 22.8
2020-Sep-28 13:48 232 1 gusting 6 22.8
2020-Sep-28 13:39 216 0 gusting 8 22.8
2020-Sep-28 13:29 171 1 gusting 8 22.2
2020-Sep-28 13:19 203 1 gusting 8 22.2
2020-Sep-28 13:09 165 0 gusting 7 22.2
2020-Sep-28 12:59 199 1 gusting 7 22.2
2020-Sep-28 12:48 196 0 gusting 6 21.7
2020-Sep-28 12:38 204 0 gusting 5 21.7
2020-Sep-28 12:28 152 21.7
2020-Sep-28 12:18 207 21.1
2020-Sep-28 12:08 190 21.1
2020-Sep-28 11:57 189 21.1
2020-Sep-28 11:48 213 21.1
2020-Sep-28 11:37 181 20.6
2020-Sep-28 11:27 178 20.6
2020-Sep-28 11:17 198 20.6
2020-Sep-28 11:07 166 21.1
2020-Sep-28 10:56 219 21.1
2020-Sep-28 10:46 217 21.1
2020-Sep-28 10:35 167 21.1
2020-Sep-28 10:26 183 21.1
2020-Sep-28 10:16 183 21.1
2020-Sep-28 10:06 181 21.1
2020-Sep-28 09:56 190 21.1
2020-Sep-28 09:46 191 21.1
2020-Sep-28 09:36 194 21.1
2020-Sep-28 09:25 194 21.1
2020-Sep-28 09:15 218 21.1
2020-Sep-28 09:05 196 21.1
2020-Sep-28 08:55 156 21.1
2020-Sep-28 08:45 157 21.1
2020-Sep-28 08:35 178 21.1
2020-Sep-28 08:25 188 21.1
2020-Sep-28 08:15 212 21.1
2020-Sep-28 08:05 200 21.1
2020-Sep-28 07:54 205 21.1
2020-Sep-28 07:44 157 21.1
2020-Sep-28 07:34 180 21.1
2020-Sep-28 07:24 182 21.1
2020-Sep-28 07:13 188 21.1
2020-Sep-28 07:03 163 21.1
2020-Sep-28 06:53 163 21.1
2020-Sep-28 06:43 155 21.1
2020-Sep-28 06:33 154 21.1
2020-Sep-28 06:23 190 21.1
2020-Sep-28 06:13 224 21.1
2020-Sep-28 06:03 168 21.1